timestamp,wind_dir_avg,wind_spd_max_dir,wind_spd_avg,wind_spd_gust,battery_voltage,lat,long
2018-05-02 02:30:00+00:00,220.0,224.0,3.63,4.54,,47.59359,-54.27349
2018-05-02 02:40:00+00:00,225.0,224.0,7.91,9.45,,47.59359,-54.27349
2018-05-02 02:50:00+00:00,232.0,232.0,8.8,9.84,,47.59359,-54.27349
2018-05-02 03:00:00+00:00,225.0,230.0,9.48,10.82,,47.59359,-54.27349
2018-05-02 03:10:00+00:00,233.0,232.0,8.43,9.55,,47.59359,-54.27349
2018-05-02 03:20:00+00:00,224.0,225.0,7.46,8.33,,47.59359,-54.27349
2018-05-02 03:30:00+00:00,228.0,228.0,9.54,10.46,,47.59359,-54.27349
2018-05-02 03:40:00+00:00,232.0,233.0,10.39,11.96,,47.59359,-54.27349
2018-05-02 03:50:00+00:00,232.0,236.0,10.11,12.26,,47.59359,-54.27349
2018-05-02 04:00:00+00:00,234.0,235.0,8.69,9.81,,47.59359,-54.27349
2018-05-02 04:10:00+00:00,231.0,231.0,7.54,8.14,,47.59359,-54.27349
2018-05-02 04:20:00+00:00,218.0,218.0,8.31,8.89,,47.59359,-54.27349
2018-05-02 04:30:00+00:00,215.0,217.0,7.73,8.35,,47.59359,-54.27349
2018-05-02 04:40:00+00:00,215.0,216.0,9.19,11.64,,47.59359,-54.27349
2018-05-02 04:50:00+00:00,224.0,227.0,9.71,10.6,,47.59359,-54.27349
2018-05-02 05:00:00+00:00,224.0,222.0,7.77,9.09,,47.59359,-54.27349
2018-05-02 05:10:00+00:00,215.0,215.0,9.2,10.79,,47.59359,-54.27349
2018-05-02 05:20:00+00:00,219.0,219.0,8.88,9.43,,47.59359,-54.27349
2018-05-02 05:30:00+00:00,217.0,219.0,7.67,8.76,,47.59359,-54.27349
2018-05-02 05:40:00+00:00,225.0,225.0,6.81,7.43,,47.59359,-54.27349
2018-05-02 05:50:00+00:00,222.0,221.0,8.13,8.95,,47.59359,-54.27349
2018-05-02 06:00:00+00:00,225.0,222.0,7.15,8.16,,47.59359,-54.27349
2018-05-02 06:10:00+00:00,232.0,233.0,8.33,9.07,,47.59359,-54.27349
2018-05-02 06:20:00+00:00,216.0,215.0,8.0,8.61,,47.59359,-54.27349
2018-05-02 06:30:00+00:00,220.0,219.0,7.77,8.47,,47.59359,-54.27349
2018-05-02 06:40:00+00:00,240.0,241.0,6.24,7.01,,47.59359,-54.27349
2018-05-02 06:50:00+00:00,230.0,232.0,7.64,8.46,,47.59359,-54.27349
2018-05-02 07:00:00+00:00,229.0,230.0,9.18,10.14,,47.59359,-54.27349
2018-05-02 07:10:00+00:00,220.0,222.0,9.64,10.63,,47.59359,-54.27349
2018-05-02 07:20:00+00:00,217.0,217.0,9.74,10.44,,47.59359,-54.27349
2018-05-02 07:30:00+00:00,217.0,218.0,8.89,9.83,,47.59359,-54.27349
2018-05-02 07:40:00+00:00,223.0,224.0,8.76,10.43,,47.59359,-54.27349
2018-05-02 07:50:00+00:00,217.0,219.0,7.82,8.71,,47.59359,-54.27349
2018-05-02 08:00:00+00:00,213.0,213.0,7.31,8.15,,47.59359,-54.27349
2018-05-02 08:10:00+00:00,225.0,225.0,7.46,8.59,,47.59359,-54.27349
2018-05-02 08:20:00+00:00,226.0,236.0,8.02,9.42,,47.59359,-54.27349
2018-05-02 08:30:00+00:00,221.0,221.0,9.53,10.64,,47.59359,-54.27349
2018-05-02 08:40:00+00:00,227.0,224.0,9.74,10.95,,47.59359,-54.27349
2018-05-02 08:50:00+00:00,227.0,230.0,10.25,11.79,,47.59359,-54.27349
2018-05-02 09:00:00+00:00,225.0,220.0,11.66,13.29,,47.59359,-54.27349
2018-05-02 09:10:00+00:00,228.0,224.0,11.39,12.37,,47.59359,-54.27349
2018-05-02 09:20:00+00:00,232.0,237.0,9.38,10.65,,47.59359,-54.27349
2018-05-02 09:30:00+00:00,228.0,230.0,9.93,11.51,,47.59359,-54.27349
2018-05-02 09:40:00+00:00,226.0,222.0,10.45,11.84,,47.59359,-54.27349
2018-05-02 09:50:00+00:00,224.0,231.0,10.2,11.32,,47.59359,-54.27349
2018-05-02 10:00:00+00:00,227.0,236.0,10.1,11.54,,47.59359,-54.27349
2018-05-02 10:10:00+00:00,223.0,220.0,10.56,11.74,,47.59359,-54.27349
2018-05-02 10:20:00+00:00,220.0,222.0,10.4,11.57,,47.59359,-54.27349
2018-05-02 10:30:00+00:00,227.0,229.0,9.46,11.0,,47.59359,-54.27349
2018-05-02 10:40:00+00:00,230.0,232.0,8.32,9.25,,47.59359,-54.27349
2018-05-02 10:50:00+00:00,238.0,238.0,6.38,7.81,,47.59359,-54.27349
2018-05-02 11:00:00+00:00,219.0,220.0,8.45,9.38,,47.59359,-54.27349
2018-05-02 11:10:00+00:00,220.0,222.0,6.86,7.45,,47.59359,-54.27349
2018-05-02 11:20:00+00:00,216.0,213.0,7.07,7.95,,47.59359,-54.27349
2018-05-02 11:30:00+00:00,213.0,211.0,7.87,8.62,,47.59359,-54.27349
2018-05-02 11:40:00+00:00,214.0,214.0,5.99,6.69,,47.59359,-54.27349
2018-05-02 11:50:00+00:00,215.0,216.0,6.72,7.76,,47.59359,-54.27349
2018-05-02 12:00:00+00:00,220.0,218.0,8.25,8.94,,47.59359,-54.27349
2018-05-02 12:10:00+00:00,229.0,231.0,7.9,8.78,,47.59359,-54.27349
2018-05-02 12:20:00+00:00,227.0,228.0,9.99,10.76,,47.59359,-54.27349
2018-05-02 12:30:00+00:00,220.0,221.0,8.64,9.76,,47.59359,-54.27349
2018-05-02 12:40:00+00:00,223.0,228.0,10.34,11.56,,47.59359,-54.27349
2018-05-02 12:50:00+00:00,223.0,222.0,9.45,10.52,,47.59359,-54.27349
2018-05-02 13:00:00+00:00,226.0,230.0,8.56,9.55,,47.59359,-54.27349
2018-05-02 13:10:00+00:00,221.0,219.0,8.46,9.51,,47.59359,-54.27349
2018-05-02 13:20:00+00:00,220.0,223.0,7.28,7.92,,47.59359,-54.27349
2018-05-02 13:30:00+00:00,214.0,212.0,7.83,8.44,,47.59359,-54.27349
2018-05-02 13:40:00+00:00,221.0,223.0,7.25,8.19,,47.59359,-54.27349
2018-05-02 13:50:00+00:00,220.0,222.0,9.48,10.26,,47.59359,-54.27349
2018-05-02 14:00:00+00:00,216.0,217.0,10.29,11.24,,47.59359,-54.27349
2018-05-02 14:10:00+00:00,218.0,214.0,9.85,11.72,,47.59359,-54.27349
2018-05-02 14:20:00+00:00,216.0,219.0,10.43,11.7,,47.59359,-54.27349
2018-05-02 14:30:00+00:00,219.0,218.0,11.18,12.44,,47.59359,-54.27349
2018-05-02 14:40:00+00:00,219.0,220.0,11.93,13.35,,47.59359,-54.27349
2018-05-02 14:50:00+00:00,217.0,217.0,11.71,13.25,,47.59359,-54.27349
2018-05-02 15:00:00+00:00,219.0,217.0,11.85,13.25,,47.59359,-54.27349
2018-05-02 15:10:00+00:00,219.0,219.0,12.79,14.12,,47.59359,-54.27349
2018-05-02 15:20:00+00:00,221.0,222.0,11.04,12.71,,47.59359,-54.27349
2018-05-02 15:30:00+00:00,222.0,221.0,11.05,12.31,,47.59359,-54.27349
2018-05-02 15:40:00+00:00,220.0,223.0,12.38,13.53,,47.59359,-54.27349
2018-05-02 15:50:00+00:00,222.0,224.0,12.18,14.01,,47.59359,-54.27349
2018-05-02 16:00:00+00:00,223.0,219.0,11.04,12.08,,47.59359,-54.27349
2018-05-02 16:10:00+00:00,224.0,223.0,12.24,13.48,,47.59359,-54.27349
2018-05-02 16:20:00+00:00,223.0,222.0,12.03,13.17,,47.59359,-54.27349
2018-05-02 16:30:00+00:00,227.0,222.0,10.55,12.62,,47.59359,-54.27349
2018-05-02 16:40:00+00:00,227.0,226.0,10.35,11.54,,47.59359,-54.27349
2018-05-02 16:50:00+00:00,223.0,222.0,9.94,11.08,,47.59359,-54.27349
2018-05-02 17:00:00+00:00,222.0,222.0,8.83,10.07,,47.59359,-54.27349
2018-05-02 17:10:00+00:00,219.0,217.0,9.58,10.58,,47.59359,-54.27349
2018-05-02 17:20:00+00:00,221.0,220.0,9.06,10.34,,47.59359,-54.27349
2018-05-02 17:30:00+00:00,225.0,227.0,8.35,9.28,,47.59359,-54.27349
2018-05-02 17:40:00+00:00,227.0,225.0,7.69,8.28,,47.59359,-54.27349
2018-05-02 17:50:00+00:00,219.0,219.0,7.57,8.55,,47.59359,-54.27349
2018-05-02 18:00:00+00:00,220.0,221.0,8.75,9.77,,47.59359,-54.27349
2018-05-02 18:10:00+00:00,222.0,225.0,8.98,9.98,,47.59359,-54.27349
2018-05-02 18:20:00+00:00,218.0,218.0,10.03,11.01,,47.59359,-54.27349
2018-05-02 18:30:00+00:00,215.0,215.0,10.17,10.92,,47.59359,-54.27349
2018-05-02 18:40:00+00:00,220.0,224.0,9.69,10.82,,47.59359,-54.27349
2018-05-02 18:50:00+00:00,221.0,221.0,10.36,11.4,,47.59359,-54.27349
2018-05-02 19:00:00+00:00,222.0,223.0,9.74,10.83,,47.59359,-54.27349
2018-05-02 19:10:00+00:00,221.0,220.0,9.87,10.58,,47.59359,-54.27349
2018-05-02 19:20:00+00:00,227.0,224.0,9.05,10.88,,47.59359,-54.27349
2018-05-02 19:30:00+00:00,222.0,222.0,8.02,8.85,,47.59359,-54.27349
2018-05-02 19:40:00+00:00,219.0,221.0,8.97,9.92,,47.59359,-54.27349
2018-05-02 19:50:00+00:00,217.0,216.0,8.88,9.72,,47.59359,-54.27349
2018-05-02 20:00:00+00:00,220.0,217.0,8.32,9.03,,47.59359,-54.27349
2018-05-02 20:10:00+00:00,227.0,223.0,7.8,9.0,,47.59359,-54.27349
2018-05-02 20:20:00+00:00,223.0,222.0,6.72,7.4,,47.59359,-54.27349
2018-05-02 20:30:00+00:00,223.0,225.0,6.61,7.2,,47.59359,-54.27349
2018-05-02 20:40:00+00:00,220.0,222.0,6.54,7.33,,47.59359,-54.27349
2018-05-02 20:50:00+00:00,217.0,216.0,7.18,7.92,,47.59359,-54.27349
2018-05-02 21:00:00+00:00,244.0,250.0,5.27,7.26,,47.59359,-54.27349
2018-05-02 21:10:00+00:00,252.0,248.0,6.66,7.55,,47.59359,-54.27349
2018-05-02 21:20:00+00:00,259.0,254.0,6.17,7.06,,47.59359,-54.27349
2018-05-02 21:30:00+00:00,264.0,263.0,5.78,6.6,,47.59359,-54.27349
2018-05-02 21:40:00+00:00,253.0,252.0,5.01,5.65,,47.59359,-54.27349
2018-05-02 21:50:00+00:00,231.0,220.0,3.29,3.87,,47.59359,-54.27349
2018-05-02 22:00:00+00:00,233.0,232.0,4.02,4.49,,47.59359,-54.27349
2018-05-02 22:10:00+00:00,217.0,217.0,7.22,7.9,,47.59359,-54.27349
2018-05-02 22:20:00+00:00,227.0,231.0,5.38,5.93,,47.59359,-54.27349
2018-05-02 22:30:00+00:00,234.0,236.0,6.46,7.38,,47.59359,-54.27349
2018-05-02 22:40:00+00:00,233.0,231.0,7.11,7.83,,47.59359,-54.27349
2018-05-02 22:50:00+00:00,231.0,230.0,7.7,9.1,,47.59359,-54.27349
2018-05-02 23:00:00+00:00,237.0,237.0,7.28,8.58,,47.59359,-54.27349
2018-05-02 23:10:00+00:00,232.0,233.0,7.61,8.52,,47.59359,-54.27349
2018-05-02 23:20:00+00:00,225.0,224.0,8.21,9.3,,47.59359,-54.27349
2018-05-02 23:30:00+00:00,221.0,219.0,8.36,9.21,,47.59359,-54.27349
2018-05-02 23:40:00+00:00,219.0,219.0,8.49,9.35,,47.59359,-54.27349
2018-05-02 23:50:00+00:00,219.0,218.0,8.73,9.68,,47.59359,-54.27349
